Wind_Speed
5 3 2 2 3 5 6 7 7 7 10 13 15 18 21 22 23 25 26 23 20 18 12 10 10 13 15 17 17 16 14 13 13 13 14 16 15 15 16 15 13 12 10 10
5 5 3 3 3 3 4 6 7 8 9 11 13 16 19 19 21 24 25 22 20 12 12 12 13 16 17 17 17 18 17 16 16 17 19 17 17 17 14 12 9 8 8 7
10 6 9 8 7 6 6 6 6 7 9 11 13 16 18 20 24 26 24 22 13 10 11 12 15 18 16 17 18 19 19 18 19 22 20 18 16 15 11 8 5 5 5 5
12 12 13 12 13 11 12 10 10 10 11 12 14 15 18 21 23 24 22 17 15 13 12 14 17 17 17 18 17 18 18 20 21 19 19 17 14 11 8 4 2 1 2 4
13 14 15 16 16 15 14 15 14 14 14 14 17 16 18 23 25 25 23 22 19 15 13 15 18 19 17 16 17 19 20 19 18 20 15 14 11 10 6 3 2 4 6 7
17 15 15 17 19 18 17 18 18 17 17 15 17 17 20 23 25 25 26 22 17 15 15 18 20 18 15 16 15 18 18 18 16 16 14 12 10 8 5 5 6 8 10 11
15 17 16 17 17 20 19 18 20 20 18 16 19 19 17 23 25 27 26 22 16 15 19 21 22 21 20 18 18 18 18 17 17 16 14 12 11 8 8 9 10 12 14 15
13 14 16 17 19 19 18 20 21 22 18 18 20 21 20 24 26 28 25 20 17 15 15 20 23 25 26 25 23 22 21 21 20 18 16 14 12 12 13 14 15 16 17 18
18 16 15 16 19 19 19 20 22 23 20 20 21 23 21 26 28 28 27 25 24 21 20 21 23 25 28 28 27 26 26 24 22 21 18 17 18 18 18 18 19 19 19 20
24 21 18 17 17 19 22 23 22 23 25 21 20 24 24 27 29 30 30 29 30 28 26 27 26 26 27 29 31 31 29 27 27 25 22 22 22 22 21 21 23 22 21 21
29 27 22 21 20 20 21 21 23 26 25 26 22 23 25 28 29 31 32 32 32 31 31 32 32 31 30 29 31 33 31 30 28 28 27 27 28 26 25 25 26 25 23 23
34 34 29 27 25 23 22 22 25 28 28 29 27 23 26 28 31 31 33 35 36 36 37 38 38 36 34 33 33 33 33 32 31 32 31 31 31 30 29 28 29 26 26 25
38 40 37 34 30 28 28 26 28 31 32 30 32 25 23 24 27 31 35 37 39 41 41 42 42 40 39 38 37 36 37 35 34 33 33 33 33 32 31 31 31 28 27 28
48 46 44 42 40 36 34 32 32 34 36 32 35 29 25 26 28 31 34 35 39 42 45 46 44 42 42 41 41 40 40 40 39 38 36 35 34 34 34 34 32 30 30 31
52 52 51 51 48 46 44 41 38 38 37 38 33 35 26 29 31 34 37 40 45 47 48 49 47 45 42 41 42 43 43 44 43 41 39 36 36 37 37 36 34 34 34 35
52 53 54 53 53 53 52 50 48 45 40 42 40 34 30 36 39 39 38 44 48 49 51 52 51 50 48 46 45 45 46 47 46 45 42 39 39 39 38 38 39 38 38 38
57 58 58 59 56 55 56 55 54 53 52 50 48 42 37 38 41 42 43 45 48 51 52 55 55 54 53 51 49 48 50 50 49 47 45 43 42 43 42 43 43 43 42 43
60 60 62 64 65 64 56 56 57 56 55 55 56 52 47 46 42 43 48 48 48 51 53 55 58 58 57 56 55 54 54 53 52 50 48 48 46 46 47 47 45 45 47 48
65 65 65 68 69 69 59 62 63 63 59 60 60 58 57 52 52 46 48 51 53 52 54 55 57 60 61 60 59 58 57 57 56 54 55 54 51 50 51 50 50 50 52 53
73 71 71 70 72 74 68 70 70 70 67 66 64 63 61 58 55 53 48 50 51 55 57 56 57 59 62 63 64 63 62 61 59 60 60 59 57 55 54 54 55 54 56 56
75 76 77 75 76 76 74 71 74 76 72 72 71 69 68 65 63 58 55 52 52 50 53 60 60 60 61 63 67 65 64 64 65 65 64 64 62 61 58 58 58 59 59 60
78 79 78 79 82 81 77 81 82 79 76 79 76 76 75 74 72 69 65 59 58 58 55 54 58 61 64 64 65 68 70 71 69 68 67 66 66 64 63 63 63 63 63 63
82 80 80 81 82 79 80 87 87 86 84 82 84 85 84 81 81 76 68 60 58 59 58 58 57 56 60 64 66 66 68 69 71 71 70 69 70 69 68 67 66 67 66 66
78 79 84 82 79 80 78 84 88 88 90 92 89 88 89 89 85 83 77 72 66 65 65 61 62 59 56 59 61 65 67 68 68 69 70 70 70 70 70 70 69 68 67 65
74 76 76 83 84 80 79 81 82 79 80 90 92 90 91 93 93 89 86 83 82 81 76 70 65 65 66 61 59 61 64 67 68 69 70 70 70 69 69 69 69 69 68 67
62 67 70 75 70 68 77 78 78 84 80 78 79 82 84 90 93 94 93 92 87 83 81 76 73 73 71 70 64 61 60 62 67 66 65 66 66 65 65 64 64 64 63 64
Wind_Direction
309 326 41 74 106 116 122 129 140 169 195 206 206 197 195 199 195 192 194 190 185 188 189 192 216 231 236 233 230 227 215 207 197 187 178 161 155 147 140 130 117 109 100 84
280 279 262 234 201 185 177 176 170 177 194 204 202 204 207 204 195 195 196 189 189 192 187 209 232 241 241 230 223 221 214 205 195 186 170 164 157 151 141 129 112 101 90 76
277 258 260 248 237 233 229 227 217 213 216 220 218 216 210 204 199 196 193 193 192 197 220 237 242 244 232 225 217 211 206 198 184 174 170 163 161 153 143 135 111 96 71 53
283 270 257 258 255 247 248 242 246 246 242 237 239 219 212 205 200 197 194 191 193 204 225 241 245 236 226 219 207 197 187 177 174 174 168 163 161 162 158 158 127 45 2 9
282 281 272 261 257 257 260 259 251 248 250 240 245 226 225 208 204 205 203 200 199 212 228 246 243 229 218 201 193 182 175 175 176 174 175 176 179 175 186 205 266 303 319 329
275 277 279 270 262 258 257 263 264 258 250 242 240 228 215 208 212 206 203 194 204 216 230 244 241 222 204 194 188 187 187 185 186 192 194 193 197 205 220 255 289 307 313 316
279 272 270 277 276 268 262 260 266 264 254 243 234 222 201 211 211 209 203 203 213 233 244 245 239 221 218 213 208 204 204 206 209 209 210 213 219 234 258 278 296 304 309 313
285 283 271 266 272 274 272 263 264 267 259 245 232 217 208 214 210 209 203 206 211 221 237 248 240 227 224 225 223 220 219 222 224 222 227 235 248 261 273 284 292 296 303 306
279 281 284 273 266 271 271 269 263 263 264 250 234 221 215 217 211 210 207 208 211 218 222 233 234 231 229 228 229 228 226 225 227 231 237 245 254 261 268 278 284 291 297 301
285 279 278 280 277 266 265 268 270 267 264 257 243 224 221 219 215 214 211 211 213 215 221 230 228 230 234 230 228 228 231 231 232 236 241 248 253 258 263 270 276 283 289 292
277 278 280 278 274 273 269 269 268 266 265 261 248 230 226 226 225 222 215 214 217 219 220 223 227 226 230 234 233 230 231 233 235 239 241 244 249 253 260 266 272 277 283 285
272 274 276 277 278 275 273 267 264 264 261 258 254 222 231 230 230 231 223 217 218 219 221 224 232 231 228 231 234 232 232 232 234 238 242 245 250 255 260 263 267 273 276 281
270 270 271 271 275 276 274 272 269 266 264 258 256 247 237 238 240 240 237 227 222 219 220 224 229 233 234 235 235 235 234 232 235 241 246 249 253 255 258 259 264 268 271 273
270 270 272 272 274 273 273 274 274 274 271 273 261 254 256 251 244 242 240 241 235 227 222 224 229 232 237 240 241 240 236 236 237 241 245 250 252 253 253 255 259 263 265 269
268 268 268 270 270 270 271 271 272 271 277 275 280 265 261 263 258 250 243 241 237 231 226 228 229 232 235 239 241 241 238 240 241 243 244 244 246 249 250 253 257 260 263 268
266 267 267 265 266 267 265 266 268 272 274 275 276 266 277 265 261 256 251 245 241 238 234 231 232 233 233 234 239 241 240 242 244 245 244 240 242 246 249 252 256 260 264 269
266 266 266 266 265 264 261 261 265 266 268 270 271 275 270 265 259 257 256 251 246 243 241 238 236 235 236 236 236 241 241 242 245 246 246 245 246 250 252 254 259 264 267 270
265 266 266 266 267 263 262 266 266 266 268 271 270 271 270 267 262 261 258 254 250 248 244 244 243 241 239 239 239 237 241 243 244 246 248 250 252 256 260 263 265 266 268 270
264 263 264 264 264 263 260 267 269 267 262 266 268 265 266 266 267 261 259 256 255 252 249 247 246 245 244 243 242 242 241 243 245 246 248 249 250 254 259 262 264 265 267 270
265 264 262 263 262 262 260 264 265 265 267 267 267 268 269 267 264 267 265 265 260 257 255 252 249 247 246 246 244 242 243 243 244 248 251 253 254 255 257 260 262 264 265 268
260 262 262 261 261 259 259 260 262 263 264 269 269 268 269 268 266 264 262 260 261 263 261 257 253 251 248 246 244 244 247 247 247 247 249 252 255 257 258 259 261 264 266 268
258 256 257 259 261 261 262 262 260 259 259 262 264 265 266 268 268 267 265 260 258 259 262 261 260 257 253 249 246 246 247 248 249 250 252 253 255 257 258 260 261 263 265 267
259 260 258 256 255 258 262 264 264 264 262 259 258 258 260 260 263 264 265 263 260 257 257 260 261 258 257 253 251 248 247 246 247 250 252 254 256 258 259 260 261 263 265 266
255 256 259 259 260 260 258 258 261 262 262 260 258 257 256 256 256 259 257 254 251 252 256 255 256 257 256 255 253 251 250 249 247 248 250 252 254 256 258 260 261 263 265 267
258 259 261 263 263 263 258 259 259 257 256 259 261 259 255 253 254 253 254 254 255 255 255 254 252 254 256 257 256 253 252 250 249 248 249 250 252 254 255 257 259 262 265 266
268 270 270 269 268 268 262 257 254 257 254 249 251 254 257 254 249 251 252 254 254 253 254 252 249 250 252 255 256 256 254 255 252 250 250 250 252 255 258 261 263 264 265 266
Height
5841 5841 5839 5838 5837 5837 5836 5836 5837 5839 5841 5842 5844 5846 5849 5852 5855 5860 5863 5866 5869 5872 5874 5877 5880 5882 5884 5885 5886 5887 5888 5889 5889 5890 5891 5893 5894 5896 5896 5897 5897 5897 5897 5897
5841 5840 5840 5840 5839 5839 5838 5838 5839 5840 5841 5843 5845 5848 5850 5852 5856 5860 5862 5865 5868 5871 5874 5876 5878 5881 5882 5883 5884 5885 5886 5887 5888 5889 5891 5893 5894 5895 5896 5897 5897 5897 5897 5897
5840 5840 5839 5839 5839 5839 5839 5840 5840 5841 5841 5843 5845 5847 5850 5852 5855 5858 5862 5865 5867 5870 5873 5875 5878 5879 5880 5882 5882 5883 5884 5885 5886 5888 5890 5892 5894 5895 5896 5896 5896 5896 5896 5896
5838 5838 5837 5838 5838 5839 5839 5839 5839 5840 5841 5842 5843 5846 5849 5851 5855 5858 5861 5863 5866 5869 5871 5874 5876 5878 5879 5879 5881 5881 5882 5884 5886 5888 5890 5892 5893 5894 5894 5895 5895 5895 5895 5894
5836 5835 5835 5836 5836 5837 5838 5837 5838 5838 5839 5841 5841 5844 5848 5849 5852 5854 5857 5860 5863 5866 5868 5872 5874 5875 5876 5878 5879 5880 5882 5884 5886 5888 5890 5891 5892 5892 5893 5893 5893 5893 5892 5891
5832 5832 5832 5832 5832 5833 5833 5834 5835 5835 5836 5838 5839 5842 5844 5848 5850 5852 5854 5856 5860 5863 5866 5868 5871 5874 5875 5877 5879 5880 5881 5883 5885 5887 5888 5889 5890 5890 5890 5890 5890 5890 5889 5889
5829 5828 5829 5828 5829 5829 5830 5830 5830 5832 5833 5834 5836 5839 5843 5843 5846 5848 5850 5853 5857 5861 5864 5866 5869 5871 5873 5875 5877 5878 5880 5882 5883 5885 5886 5887 5887 5887 5887 5888 5887 5887 5886 5885
5826 5826 5825 5825 5825 5825 5825 5826 5826 5825 5829 5830 5832 5836 5838 5840 5842 5844 5846 5850 5854 5857 5860 5863 5865 5867 5869 5870 5873 5875 5877 5878 5880 5881 5882 5883 5884 5884 5884 5883 5883 5883 5882 5881
5823 5823 5821 5820 5820 5822 5822 5821 5822 5822 5823 5825 5828 5832 5835 5835 5837 5840 5842 5845 5848 5851 5854 5857 5859 5861 5864 5866 5868 5871 5872 5873 5876 5876 5878 5879 5879 5879 5879 5879 5878 5878 5877 5875
5817 5818 5818 5817 5816 5817 5816 5817 5818 5818 5818 5820 5824 5828 5830 5831 5833 5834 5836 5839 5841 5844 5846 5850 5853 5855 5857 5860 5862 5864 5866 5868 5869 5870 5872 5873 5874 5873 5873 5873 5872 5872 5871 5870
5810 5811 5814 5813 5812 5811 5812 5812 5812 5812 5813 5813 5817 5822 5824 5826 5827 5828 5830 5832 5834 5837 5840 5842 5845 5847 5850 5853 5855 5857 5859 5861 5863 5864 5865 5866 5866 5866 5867 5867 5866 5865 5864 5863
5802 5802 5806 5806 5806 5807 5806 5806 5806 5805 5807 5807 5810 5818 5817 5820 5821 5822 5823 5825 5826 5829 5831 5833 5836 5838 5841 5845 5847 5850 5852 5854 5856 5856 5857 5859 5859 5860 5860 5860 5859 5858 5857 5856
5795 5793 5796 5798 5801 5800 5800 5801 5799 5798 5798 5802 5802 5809 5813 5814 5815 5816 5817 5816 5816 5817 5820 5823 5826 5830 5833 5835 5838 5841 5844 5846 5847 5848 5849 5850 5851 5852 5853 5852 5850 5851 5850 5849
5783 5785 5786 5789 5790 5792 5792 5793 5792 5791 5790 5795 5794 5800 5805 5806 5806 5806 5805 5805 5804 5807 5809 5813 5817 5820 5824 5827 5830 5832 5835 5837 5837 5839 5840 5842 5843 5843 5843 5842 5842 5843 5842 5841
5771 5773 5774 5776 5778 5780 5782 5783 5784 5783 5785 5782 5789 5788 5797 5795 5792 5792 5793 5792 5795 5798 5801 5804 5808 5811 5814 5818 5820 5823 5825 5827 5828 5830 5831 5833 5833 5833 5834 5834 5834 5833 5833 5832
5758 5758 5758 5762 5764 5766 5768 5771 5772 5774 5776 5773 5774 5776 5785 5780 5781 5782 5781 5783 5787 5791 5793 5795 5798 5801 5804 5806 5810 5813 5816 5817 5818 5819 5821 5822 5822 5823 5824 5824 5824 5823 5824 5823
5745 5744 5744 5745 5750 5752 5754 5758 5761 5762 5762 5763 5761 5768 5771 5770 5769 5770 5774 5774 5777 5780 5783 5785 5787 5790 5794 5796 5797 5800 5802 5804 5806 5809 5811 5813 5813 5813 5813 5813 5813 5814 5814 5812
5730 5728 5729 5730 5732 5732 5743 5744 5745 5747 5750 5748 5747 5752 5754 5755 5760 5761 5761 5764 5766 5767 5770 5773 5775 5778 5781 5784 5786 5788 5790 5793 5795 5798 5800 5801 5803 5804 5804 5804 5805 5803 5802 5801
5709 5712 5712 5712 5715 5719 5728 5726 5728 5729 5732 5731 5731 5734 5738 5744 5745 5750 5745 5751 5755 5756 5757 5759 5761 5765 5767 5770 5771 5775 5778 5781 5783 5785 5786 5787 5790 5791 5791 5792 5792 5791 5789 5787
5688 5688 5690 5699 5698 5699 5714 5710 5711 5710 5712 5713 5717 5718 5723 5727 5731 5735 5737 5738 5739 5740 5743 5745 5746 5748 5752 5755 5759 5761 5762 5766 5769 5771 5772 5773 5775 5776 5777 5778 5777 5777 5775 5775
5668 5667 5667 5674 5674 5682 5691 5696 5692 5692 5700 5693 5697 5701 5702 5707 5711 5718 5721 5724 5724 5726 5726 5728 5732 5732 5734 5739 5744 5746 5748 5750 5751 5754 5756 5757 5759 5761 5763 5763 5762 5762 5761 5760
5648 5644 5649 5649 5646 5663 5676 5672 5672 5675 5680 5678 5679 5680 5683 5684 5688 5692 5700 5704 5708 5710 5711 5713 5715 5719 5719 5719 5723 5727 5731 5734 5736 5738 5740 5742 5744 5745 5746 5746 5746 5746 5745 5745
5621 5621 5621 5622 5628 5650 5655 5647 5648 5649 5655 5660 5659 5662 5660 5665 5667 5671 5676 5682 5686 5692 5695 5697 5700 5700 5701 5704 5706 5708 5710 5714 5718 5721 5722 5724 5726 5727 5728 5728 5729 5729 5729 5728
5595 5598 5593 5591 5621 5622 5634 5625 5622 5620 5624 5622 5627 5634 5636 5639 5646 5650 5655 5661 5667 5671 5676 5680 5682 5683 5684 5686 5691 5693 5695 5698 5700 5702 5704 5706 5707 5709 5710 5711 5711 5712 5712 5712
5575 5578 5579 5572 5594 5586 5594 5596 5592 5591 5590 5593 5597 5599 5605 5611 5618 5624 5632 5637 5642 5649 5654 5659 5665 5667 5667 5670 5673 5676 5679 5681 5683 5685 5687 5689 5690 5691 5692 5694 5696 5696 5697 5696
5562 5560 5555 5555 5560 5551 5556 5565 5565 5558 5565 5572 5567 5567 5571 5578 5592 5599 5606 5611 5616 5623 5630 5636 5640 5645 5651 5652 5656 5659 5661 5664 5666 5667 5669 5671 5673 5675 5676 5678 5680 5680 5681 5680